Regional Weather Roundup
Issued by NWS Wakefield, VA

Home | Current Version | Previous Version | Text Only | Print | Product List | Glossary On
Versions: 1 2 3 4 5 6 7 8 9 10 11 12 13 14 15 16 17 18 19 20 21 22 23 24 25 26 27 28 29 30 31 32 33 34 35 36 37 38 39 40 41 42 43 44 45 46 47 48 49 50
000
ASUS41 KAKQ 211315
RWRAKQ

REGIONAL WEATHER ROUNDUP
NATIONAL WEATHER SERVICE WAKEFIELD VA
900 AM EDT SAT OCT 21 2017

Note: "fair" indicates few or no clouds below 12,000 feet with no
significant weather and/or obstructions to visibility. * = Denotes
station may not report precipitation (e.g., rain,snow,etc.),
thunder or fog.

VAZ042-051-052>054-056-211400-
NORTHERN VIRGINIA

CITY           SKY/WX    TMP DP  RH WIND       PRES   REMARKS
WASH NATIONAL  MOSUNNY   58  52  80 N3        30.36R
DULLES         MOSUNNY   54  49  83 CALM      30.36R
FORT BELVOIR   SUNNY     51  49  94 CALM      30.35R
QUANTICO       MOSUNNY   53  51  93 NW8       30.36R
FREDERICKSBRG* SUNNY     51  51  99 CALM      30.35R
STAFFORD*      SUNNY     51  51 100 CALM      30.40R
WARRENTON      MOSUNNY   50  44  81 CALM      30.36R
CULPEPER*      SUNNY     49  47  93 CALM      30.37R
MANASSAS*      MOSUNNY   47  45  93 CALM      30.37R
LEESBURG*      SUNNY     52  48  87 CALM      30.37R
WINCHESTER     SUNNY     46  43  87 CALM      30.36R
FRONT ROYAL*   SUNNY     48  46  93 CALM      30.36R
LURAY*         SUNNY     48  46  93 SW5       30.36R
$$

VAZ048-049-060>072-079>083-211400-
CENTRAL AND SOUTH CENTRAL VIRGINIA

CITY           SKY/WX    TMP DP  RH WIND       PRES   REMARKS
RICHMOND       MOSUNNY   59  52  77 CALM      30.34R
CHESTERFIELD*  NOT AVBL
PETERSBURG*    SUNNY    N/A N/A N/A CALM      30.35R
HANOVER        SUNNY     54  51  90 CALM      30.36R
TAPPAHANNOCK*  SUNNY    N/A N/A N/A CALM      30.35R
QUINTON*       FAIR      54  52  94 CALM      30.34R
CHARLOTTSVILLE SUNNY     55  50  83 CALM      30.35R
GORDONSVILLE*  SUNNY     51  50  96 CALM      30.35R
ORANGE*        SUNNY     52  50  93 CALM      30.35R
LOUISA*        SUNNY     54  52  94 CALM      30.35R
BUMPASS*       FAIR      55  55 100 CALM      30.35R
FARMVILLE*     SUNNY     52  52 100 CALM      30.35R
CREWE*         FAIR      51  51 100 CALM      30.35R
FORT PICKETT*  FAIR      56  56 100 CALM      30.35R
CHASE CITY*    FAIR      55  55 100 CALM      30.35R
CLARKSVILLE*   FAIR      54  54 100 CALM      30.35R
SOUTH HILL*    SUNNY     54  54 100 CALM      30.40R
LAWRENCEVILLE* FAIR      56  53  90 CALM      30.34R
EMPORIA*       SUNNY     54  52  94 NW3       30.36R
$$

VAZ088>098-211400-
SOUTHEAST VIRGINIA

CITY           SKY/WX    TMP DP  RH WIND       PRES   REMARKS
NORFOLK        SUNNY     64  60  87 CALM      30.33R
VIRGINIA BEACH MOSUNNY   59  55  87 CALM      30.33R
NORFOLK NAVAL  MOSUNNY   64  61  90 CALM      30.35R
WEST POINT*    SUNNY     53  53 100 CALM      30.36R
SALUDA*        FAIR      59  59 100 CALM      30.34R
NEWPORT NEWS   HAZE      58  57  97 CALM      30.34R VSB 1/4
LANGLEY AFB    SUNNY     61  61 100 CALM      30.34R
FORT EUSTIS    FOG       58  56  94 CALM      30.32R VSB<1/4
WILLIAMSBURG*  SUNNY     57  57 100 CALM      30.35R
HR EXEC AP*    NOT AVBL
FRANKLIN*      SUNNY     54  52  93 CALM      30.35R
US460-WAKEFLD  MOSUNNY   56  55  97 CALM      30.35R
$$

VAZ020-022-025-037-045-211400-
WEST CENTRAL AND SOUTHWEST VIRGINIA

CITY           SKY/WX    TMP DP  RH WIND       PRES   REMARKS
STAUNTON*      SUNNY     46  44  94 CALM      30.39R
WAYNESBORO*    SUNNY     49  48  96 CALM      30.37R
HOT SPRINGS VA SUNNY     59  44  57 CALM      30.41R
LYNCHBURG      SUNNY     57  52  83 NE7       30.36R
DANVILLE       SUNNY     51  51 100 CALM      30.35R
SOUTH BOSTON*  FAIR      50  49  96 CALM      30.35R
MARTINSVILLE   SUNNY     49  48  97 CALM      30.39R
ROANOKE        SUNNY     55  51  86 CALM      30.39R
BLACKSBURG     SUNNY     51  50  97 CALM      30.41R
DUBLIN*        SUNNY     48  48 100 CALM      30.40R FOG
MARION*          N/A     49  46  87 CALM      30.41R FOG
HILLSVILLE*    SUNNY     48  41  75 CALM      30.38R
RICHLANDS*     FAIR      61 -24   3 SE3       30.35R
WISE*          SUNNY     59  45  58 SW5       30.35R
ABINGDON*      CLOUDY    55  48  77 E7        30.34R
$$

MDZ021>025-VAZ099-100-211400-
SOUTHERN MARYLAND AND THE DELMARVA PENINSULA

CITY           SKY/WX    TMP DP  RH WIND       PRES   REMARKS
PATUXENT RIVER MOSUNNY   60  58  92 NW3       30.34R
BAY BRIDGE APT SUNNY     61  57  88 CALM      30.35R
LEONARDTOWN    NOT AVBL
DOVER          MOSUNNY   56  45  67 CALM      30.35R
GEORGETOWN     SUNNY     56  48  74 CALM      30.35R
EASTON         SUNNY     55  52  88 CALM      30.38R
CAMBRIDGE      FOG       50  50 100 CALM      30.35R VSB 1
SALISBURY      SUNNY     54  49  83 CALM      30.34R
OCEAN CITY     SUNNY     58  52  80 NW3       30.34R
WALLOPS ISLAND SUNNY     59  50  72 NW3       30.35R
ACCOMACK*      SUNNY     59  58  97 CALM      30.34R
$$

NCZ012>017-030>032-211400-
NORTH CENTRAL AND EASTERN NORTH CAROLINA

CITY           SKY/WX    TMP DP  RH WIND       PRES   REMARKS
ROANOKE RAPIDS FAIR      54  54 100 CALM      30.34R
RALEIGH        MOSUNNY   57  55  93 CALM      30.34R
ELIZABETH CITY SUNNY     62  62 100 CALM      30.33R
AHOSKIE*       SUNNY     52  51  98 CALM      30.34R
EDENTON*       PTSUNNY   57  56  95 CALM      30.34R
CURRITUCK*     SUNNY     57  56  97 CALM      30.34R
KILL DEVIL HLS SUNNY     63  63 100 CALM      30.31R
MANTEO         SUNNY    N/A N/A N/A N3        30.33R
CAPE HATTERAS  SUNNY     70  66  87 CALM      30.31R
TARBORO*       NOT AVBL
GOLDSBORO      SUNNY     56  54  92 CALM      30.31R FOG
WASHINGTON     SUNNY     56  54  92 CALM      30.34R
GREENVILLE     SUNNY     52  52 100 CALM      30.33R
NEW BERN       SUNNY     61  60  97 CALM      30.34R
WILMINGTON     SUNNY     61  57  87 CALM      30.32R
$$

VAZ048-211400-
ELSEWHERE

CITY           SKY/WX    TMP DP  RH WIND       PRES   REMARKS
HARRISBURG PA  MOSUNNY   51  48  89 NW7       30.36R
BALTIMORE      PTSUNNY   54  49  83 CALM      30.36R
ANNAPOLIS      SUNNY     61  55  81 NW5       30.36R
ANDREWS AFB    SUNNY     57  50  79 CALM      30.35R
PHILADELPHIA   MOSUNNY   58  41  53 CALM      30.35R
HENDERSON NC   SUNNY     53  51  92 CALM      30.35R
GREENSBORO     MOSUNNY   57  52  83 NE3       30.34R
ROCKY MOUNT    SUNNY     56  55  97 N5        30.34R
$$

VAZ100-211400-
MARINE

STATION/POSITION TIME  TEMP    WIND        PRES    WAVE   SWELL
                       AIR SEA DIR/SP/G            HT/PER HT/PER
                 (UTC) (F)     (DEG/KT/KT) (MB)    (FT/S) (FT/S)
BRANDYWINE LGT   1248   64     360/  6/  7 1027.8R
CAPE MAY NJ      1248   62 65   20/  2/  4 1026.9R
LEWES DE         1248   65 65   10/  2/  4 1027.3R
15NM E FENWICK I 1250   68 67   40/  2/  4 1027.4R   2/ 8   2/ 8
OCEAN-CITY-INLET 1248   59 66   10/  4/  5 1027.6R
WACHAPREAGUE VA  1248   68 65   CALM  /  2 1027.3R
THOMAS POINT MD  1300   61 67  340/  4/  4   N/A
GOOSES REEF MD   1250   65     350/  4/  4 1033.5R
COVE POINT MD    1248   62     320/  2/  4 1028.2R
SOLOMONS ISLAND  1248   60 69  330/  3/  4 1027.1R
BISHOPS HEAD MD  1248   63 65   10/  4/  5 1027.7R
PINEY POINT MD   1242          350/  3/  4   N/A
POTOMAC MD       1250   65     320/  4/  6 1026.8R
CAMBRIDGE MD     1248   62 66              1028.3R
LEWISETTA VA     1248   59 65  250/  2/  3 1027.3R
RAPPAHANNOCK LGT 1248          360/  1/  2 1027.9R
STINGRAY PT      1250   65      10/  4/  6 1027.6R
YORK RVR RNG VA  1248   63     330/  2/  3 1027.7R
YORKTOWN VA      1248   61 69  250/  2/  3 1027.0R
JAMESTOWN VA     1250           CALM  /  2   N/A
DOMINION TERM VA 1248   65     320/  4/  5 1027.4R
KIPTOPEKE VA     1248      68   20/  3/  3   N/A
CAPE HENRY VA    1248   66     300/  4/  5   N/A
WILLOUBY STN VA  1248   66     320/  4/  5 1027.2R
S CRANEY ISL VA  1248   65     320/  3/  3 1027.0R
CAPE HENRY BUOY  1230      70                N/A     2/ 8
1ST LANDING BUOY 1250   68                 1027.1R
CAPE CHARLES BUO 1251      69                N/A     2/ 8
64NM E OF VA BCH 1250   67 67  340/  4/  6 1027.1R   2/ 8   2/ 8
DUCK PIER NC     1248   65 69  320/  5/  5 1026.4R
44100 DUCK FRF   1235      70                N/A     2/ 8
44056 DUCK FRF   1300      69                N/A     2/ 9
OREGON INLET NC  1242   65 69  320/  3/  5 1026.5R
HATTERAS NC      1248   68 71   10/  8/  9 1026.3R
DIAMOND SHLS NC  1250   72 80  350/ 14/ 16 1025.7R   3/ 8   2/ 8
CAPE LOOKOUT NC  1200   66     360/  6/  8 1025.3R
$$



USA.gov is the U.S. government's official web portal to all federal, state and local government web resources and services.